Flag for Switzerland Weather past 2 weeks in Biel, Switzerland

Now
74 °F

Mild.


Feels Like: 77 °F
Forecast: 58 / 91 °F
Wind: 6 mph from Northeast

Location: Grenchen

Current Time: Jun 30, 2015 at 10:27:22 PM

Latest Report: Jun 30, 2015 at 9:00 PM


Visibility: N/A

Pressure: 30.03 "Hg

Humidity: 46%

Dew point: 53 °F

Location of BielLocation

Historic Weather in Biel — Graph

°F

Biel temperature yesterday

Maximum temperature yesterday: 83 °F (at 5:00 PM)
Minimum temperature yesterday: 54 °F (at 6:00 AM)
Average temperature yesterday: 69 °F

Past Weeks' High & Low Weather Summary

 TemperatureHumidityPressure
High89 °F (Jun 30, 3:00 PM)100% (Jun 22, 6:00 AM)30.25 "Hg (Jun 22, 6:00 AM)
Low44 °F (Jun 24, 5:00 AM)23% (Jun 30, 4:00 PM)29.75 "Hg (Jun 22, 9:00 PM)
Average64 °F68%30.10 "Hg
* Reported Jun 15 9:00 PM — Jun 30 9:00 PM, Biel, Weather by CustomWeather, © 2015

Note: Actual official high and low records may vary slightly from our data, if they occured in-between our weather recording intervals... More about our weather records

Advertising

Biel weather history for previous 24 hours

 ConditionsComfort  
Time TempWeatherWind HumidityBarometerVisibility
9:00 PM
Tue, Jun 30
74 °FMild.6 mph46%30.03 "HgN/A
8:00 PM84 °FPleasantly warm.5 mph35%30.00 "HgN/A
6:00 PM88 °FHot.7 mph24%29.98 "HgN/A
4:00 PM88 °FHot.8 mph23%30.01 "HgN/A
3:00 PM89 °FHot.9 mph26%30.01 "HgN/A
2:00 PM87 °FPleasantly warm.9 mph30%30.03 "HgN/A
1:00 PM85 °FPleasantly warm.8 mph32%30.06 "HgN/A
12:00 PM83 °FPleasantly warm.10 mph37%30.08 "HgN/A
11:00 AM78 °FWarm.6 mph49%30.10 "HgN/A
10:00 AM73 °FMild.3 mph56%30.12 "HgN/A
9:00 AM69 °FMild.3 mph65%30.14 "HgN/A
8:00 AM64 °FMild.3 mph79%30.15 "HgN/A
7:00 AM59 °FCool.3 mph93%30.16 "HgN/A
6:00 AM56 °FCool.3 mph95%30.17 "HgN/A
5:00 AM57 °FCool.2 mph92%30.16 "HgN/A
4:00 AM56 °FCool.2 mph94%30.17 "HgN/A
3:00 AM59 °FCool.No wind90%30.17 "HgN/A
2:00 AM61 °FCool.1 mph85%30.17 "HgN/A
1:00 AM62 °FCool.2 mph83%30.18 "HgN/A
12:00 AM64 °FMild.2 mph76%30.18 "HgN/A
11:00 PM
Mon, Jun 29
67 °FMild.1 mph75%30.17 "HgN/A
10:00 PM69 °FMild.2 mph71%30.16 "HgN/A
Weather by CustomWeather, © 2015

See weather overviewHow to use our weather pages